Location: Unspecified
(0.0000°N, 0.0000°E)
Time: 01:24:58
(UTC+00:00)

A-11 Canister half - Pass Details

Date: 25 November 2019
Orbit: 1515 x 1685 km, 47.2° (Epoch: 10 December)

Event Time Altitude Azimuth Distance (km) Brightness Sun altitude
Rises 00:35:56 0° 327° (NNW) 4,889 - -66.1°
Reaches altitude 10° 00:39:10 10° 330° (NNW) 3,885 - -65.7°
Maximum altitude 00:48:59 66° 50° (NE) 1,734 - -64.4°
Exits shadow 00:58:01 12° 130° (SE) 3,631 11.2 -63.0°
Drops below altitude 10° 00:58:27 10° 131° (SE) 3,761 11.3 -62.9°
Sets 01:01:30 0° 133° (SE) 4,726 12.0 -62.4°
